Tracking 34142 objects as of 18-May-2026
HD Live streaming from Space Station
objects crossing your sky now

QIANFAN-114

Track QIANFAN-114 now!
10-day predictions
QIANFAN-114 is classified as:


NORAD ID: 68641
Int'l Code: 2026-075F
Perigee: 968.3 km
Apogee: 986.8 km
Inclination: 89.0 °
Period: 104.5 minutes
Semi major axis: 7348 km
RCS: Unknown
Launch date: April 7, 2026
Source: People's Republic of China (PRC)
Launch site: Wenchang Satellite Launch Center (WSC)
Your satellite tracking list
Your tracking list is empty




NASA's NSSDC Master Catalog

Two Line Element Set (TLE):
1 68641U 26075F   26137.34042899 -.02147288  00000-0 -22955+1 0  9990
2 68641  88.9870 324.2066 0012587 104.7001 255.5561 13.78168783  5619
Source of the keplerian elements: AFSPC